Date,TemperatureHighF,TemperatureAvgF,TemperatureLowF,DewpointHighF,DewpointAvgF,DewpointLowF,HumidityHigh,HumidityAvg,HumidityLow,PressureMaxIn,PressureMinIn,WindSpeedMaxMPH,WindSpeedAvgMPH,GustSpeedMaxMPH,PrecipitationSumIn
2013-1-1,43.5,39.4,34.7,31.6,29.3,24.0,76,67,61,30.05,29.94,10,0,10,0.00
2013-1-2,36.9,31.8,26.4,28.6,20.4,16.2,76,63,48,30.28,30.03,11,1,11,0.00
2013-1-3,38.2,28.9,21.2,21.8,19.1,15.9,89,68,45,30.30,30.18,9,0,9,0.00
2013-1-4,42.4,33.7,23.1,25.7,22.7,19.9,90,65,49,30.24,30.13,15,2,15,0.00
2013-1-5,43.6,35.7,31.0,28.6,24.4,21.9,79,64,50,30.41,30.17,9,1,9,0.00
2013-1-6,51.4,40.6,28.5,36.7,30.8,27.5,97,71,42,30.24,30.06,10,0,10,0.01
2013-1-7,46.3,38.7,26.3,31.6,28.3,23.7,90,67,50,30.47,30.17,12,1,12,0.00
2013-1-8,53.6,35.9,23.9,35.3,29.1,22.1,94,78,47,30.46,30.39,10,0,10,0.00
2013-1-9,49.7,38.8,27.1,42.1,34.2,25.6,94,84,62,30.42,30.26,5,0,7,0.01
2013-1-10,52.9,44.5,34.9,34.3,30.5,27.4,82,59,41,30.63,30.40,11,1,11,0.00
2013-1-11,45.2,39.6,32.4,41.6,36.2,29.7,97,88,71,30.54,30.13,6,0,6,0.09
2013-1-12,57.2,46.2,41.4,49.8,44.0,40.9,98,93,74,30.21,30.13,6,0,6,0.00
2013-1-13,49.4,45.7,41.3,48.9,45.2,40.4,99,98,96,30.17,30.01,5,0,5,0.01
2013-1-14,57.2,51.4,39.2,56.9,47.0,33.3,99,86,58,30.33,29.98,12,1,12,0.18
2013-1-15,39.5,38.1,34.3,38.7,36.9,33.0,97,95,91,30.37,30.19,10,1,10,0.59
2013-1-16,39.4,36.8,34.0,38.6,36.0,33.0,97,97,96,30.19,29.85,13,0,13,0.37
2013-1-17,43.8,39.7,36.4,38.8,34.2,31.1,97,81,66,30.16,30.00,16,0,16,0.01
2013-1-18,36.6,32.5,26.2,32.0,20.6,10.3,84,63,38,30.52,30.07,16,2,16,0.00
2013-1-19,51.9,40.9,26.9,32.0,27.3,17.2,79,60,42,30.46,29.98,14,3,14,0.00
2013-1-20,58.7,44.1,32.3,34.0,24.7,12.7,75,49,25,30.12,29.84,18,2,18,0.00
2013-1-21,40.4,33.0,28.4,28.4,20.1,13.6,79,59,49,30.14,29.84,17,1,17,0.00
2013-1-22,28.4,20.1,14.6,14.2,1.8,-2.8,56,45,34,30.34,29.97,18,3,18,0.00
2013-1-23,25.2,19.2,11.6,7.2,2.9,0.6,72,50,36,30.40,30.20,12,1,12,0.00
2013-1-24,25.9,19.6,14.6,14.7,9.5,3.0,89,66,39,30.56,30.16,15,2,15,0.03
2013-1-25,22.8,18.0,13.0,18.1,10.5,4.7,92,73,50,30.56,30.12,10,0,10,0.00
2013-1-26,32.4,25.0,18.5,21.5,19.2,15.9,91,79,62,30.48,30.14,9,0,9,0.08
2013-1-27,36.9,25.2,14.5,23.3,18.3,12.3,92,77,50,30.65,30.48,6,0,6,0.01
2013-1-28,41.2,33.7,26.4,40.1,31.5,23.1,98,92,77,30.56,30.08,11,1,11,0.05
2013-1-29,67.6,47.9,32.1,54.9,43.7,31.3,98,87,63,30.18,30.01,4,0,8,0.00
2013-1-30,69.9,56.1,40.3,62.3,53.8,39.3,98,92,75,30.01,29.24,30,3,30,1.22
2013-1-31,61.9,42.4,26.3,61.5,29.5,13.4,99,62,38,29.94,29.16,30,4,30,0.49
2013-2-1,30.1,25.7,19.3,25.3,13.7,5.9,90,61,42,30.42,29.85,24,3,24,0.01
2013-2-2,28.8,23.0,15.6,25.4,14.2,6.4,94,70,43,30.43,30.07,13,1,13,0.00
2013-2-3,33.7,27.8,19.9,28.9,24.7,18.4,95,88,71,30.07,29.87,15,0,15,0.05
2013-2-4,36.4,29.3,22.4,24.3,17.4,12.4,76,61,46,30.15,29.94,21,1,21,0.00
2013-2-5,37.9,33.2,28.4,29.0,26.8,22.1,87,78,66,29.98,29.89,6,0,6,0.00
2013-2-6,43.7,35.2,27.0,31.3,27.0,21.5,92,73,53,30.40,29.97,13,1,13,0.00
2013-2-7,37.2,31.7,24.2,29.6,24.8,21.4,89,76,60,30.49,30.26,11,1,11,0.00
2013-2-8,40.3,36.2,33.3,39.3,32.9,24.2,96,88,69,30.26,29.76,24,2,24,0.24
2013-2-9,38.9,31.9,27.5,24.5,19.5,16.3,71,60,46,30.43,29.92,25,3,25,0.00
2013-2-10,44.7,32.3,19.5,29.1,19.4,14.9,90,62,33,30.53,30.29,9,0,9,0.00
2013-2-11,52.1,43.2,34.7,50.1,41.5,28.9,98,94,63,30.29,29.73,14,2,14,0.39
2013-2-12,54.7,46.3,36.3,36.2,30.9,28.2,74,56,39,30.02,29.83,17,1,17,0.00
2013-2-13,46.2,35.1,27.6,35.3,30.2,25.4,97,83,60,30.00,29.70,8,1,8,0.15
2013-2-14,48.2,36.9,30.3,33.5,30.7,25.4,97,81,47,30.05,29.80,10,0,10,0.17
2013-2-15,59.2,42.1,29.7,37.9,32.9,28.1,96,74,37,30.07,29.92,18,1,18,0.15
2013-2-16,36.7,34.4,31.2,33.8,29.5,18.8,97,83,59,30.05,29.85,14,2,14,0.02
2013-2-17,32.5,27.4,23.2,20.1,14.6,9.9,72,58,43,30.23,29.85,16,3,17,0.00
2013-2-18,41.0,29.3,19.9,19.1,11.4,7.7,66,48,27,30.42,30.21,14,1,14,0.00
2013-2-19,43.3,36.6,26.3,41.1,30.6,17.9,95,79,55,30.21,29.75,18,2,18,0.18
2013-2-20,36.5,31.0,24.5,24.0,17.1,11.0,63,56,47,30.19,29.87,18,3,18,0.00
2013-2-21,38.9,29.7,23.3,19.6,16.1,12.7,68,57,44,30.37,30.16,14,2,14,0.00
2013-2-22,33.6,30.7,28.5,30.0,23.7,17.6,95,76,62,30.43,30.26,10,1,10,0.02
2013-2-23,44.7,38.2,31.4,43.9,37.4,30.1,98,97,95,30.26,29.84,8,1,8,0.09
2013-2-24,50.6,40.8,30.9,41.2,32.5,21.8,98,74,44,30.14,29.82,17,2,17,0.00
2013-2-25,47.1,35.7,26.2,28.7,24.5,21.0,87,65,46,30.26,30.13,11,1,11,0.00
2013-2-26,42.6,35.7,26.7,41.7,32.9,24.2,97,90,73,30.27,29.66,20,2,20,0.54
2013-2-27,57.1,46.6,39.4,43.2,39.4,34.3,98,78,53,29.72,29.55,12,0,12,0.05
2013-2-28,47.4,42.0,38.6,38.8,32.6,26.1,95,70,46,29.75,29.66,0,0,0,0.03
2013-3-1,43.9,39.8,33.7,32.9,30.1,25.8,81,68,54,29.90,29.74,0,0,0,0.00
2013-3-2,38.9,33.0,29.5,26.4,23.9,20.9,81,69,58,29.91,29.84,0,0,0,0.00
2013-3-3,39.6,33.3,29.3,24.3,21.9,20.1,73,63,50,29.93,29.82,0,0,0,0.00
2013-3-4,42.5,33.8,27.2,23.2,19.7,16.3,68,56,44,30.06,29.93,0,0,0,0.00
2013-3-5,48.4,37.7,27.8,30.5,21.7,11.8,73,55,26,30.12,29.87,0,0,0,0.00
2013-3-6,38.4,35.6,33.0,35.6,33.1,28.8,96,91,69,30.02,29.67,0,0,0,0.62
2013-3-7,50.7,40.9,34.9,32.6,29.5,26.8,81,65,45,30.17,30.02,0,0,0,0.00
2013-3-8,48.4,41.0,33.8,30.6,28.2,24.3,80,61,48,30.30,30.15,0,0,0,0.00
2013-3-9,61.4,45.5,34.6,30.4,25.8,20.8,81,49,22,30.37,30.27,8,0,8,0.00
2013-3-10,63.0,45.4,28.3,35.4,26.5,15.5,91,55,21,30.37,30.25,7,1,9,0.00
2013-3-11,58.2,49.5,41.0,49.6,44.1,35.6,93,82,67,30.29,29.96,9,1,9,0.00
2013-3-12,59.6,51.0,40.9,55.3,45.9,31.6,98,84,59,29.98,29.73,15,1,15,0.89
2013-3-13,50.2,40.3,29.9,34.0,27.7,20.4,92,63,32,30.09,29.92,18,2,18,0.00
2013-3-14,45.4,36.9,30.8,22.4,19.1,15.9,66,49,32,30.14,30.03,24,3,24,0.00
2013-3-15,55.9,42.2,27.0,34.2,24.9,19.2,85,53,30,30.12,29.80,17,1,17,0.00
2013-3-16,53.6,44.2,37.7,39.6,35.5,32.3,85,72,55,29.96,29.68,13,2,13,0.00
2013-3-17,40.1,37.4,33.7,33.6,29.8,24.3,91,74,60,30.31,29.95,17,2,17,0.00
2013-3-18,37.7,36.0,34.3,35.7,28.8,19.3,97,76,53,30.36,29.92,15,1,15,0.39
2013-3-19,60.2,44.8,36.1,41.7,31.3,12.3,97,67,23,29.94,29.74,22,2,22,0.01
2013-3-20,52.9,42.5,32.2,24.3,18.9,14.2,60,40,23,30.02,29.80,15,2,15,0.00
2013-3-21,39.9,33.7,28.0,27.9,17.5,10.4,84,52,38,29.92,29.78,15,3,15,0.00
2013-3-22,46.6,35.2,27.1,22.9,18.5,11.9,64,51,36,30.03,29.91,18,2,18,0.00
2013-3-23,52.2,39.0,26.0,28.0,23.7,20.2,84,56,34,30.06,29.94,13,2,13,0.00
2013-3-24,42.6,36.0,28.0,32.4,25.0,21.9,92,66,47,30.04,29.70,11,1,11,0.00
2013-3-25,36.7,34.2,32.4,35.4,32.8,31.2,97,95,88,29.73,29.55,7,0,7,0.62
2013-3-26,50.1,40.3,30.9,36.2,31.5,24.5,97,74,40,30.00,29.73,15,1,15,0.05
2013-3-27,50.7,42.8,36.8,34.2,29.9,25.7,75,61,44,30.13,30.00,19,2,19,0.00
2013-3-28,48.2,41.9,33.4,34.3,30.3,26.5,83,64,44,30.25,30.11,14,2,14,0.00
2013-3-29,54.7,46.2,39.1,34.6,30.3,26.6,74,55,38,30.28,30.16,17,1,17,0.00
2013-3-30,60.7,45.1,32.0,36.2,29.2,20.3,90,59,24,30.26,30.14,9,0,9,0.00
2013-3-31,55.2,45.2,35.3,49.8,40.9,29.7,96,85,67,30.16,29.77,7,0,7,0.03
2013-4-1,66.6,48.3,37.0,47.7,36.8,20.5,98,68,38,30.01,29.74,18,2,18,0.01
2013-4-2,48.4,38.8,28.8,22.3,19.2,15.0,75,47,30,30.21,30.02,16,1,16,0.00
2013-4-3,51.7,38.3,25.8,22.3,18.6,11.3,83,49,25,30.42,30.21,19,2,19,0.00
2013-4-4,50.9,37.7,23.3,35.8,20.3,13.3,89,53,24,30.46,30.13,12,1,12,0.03
2013-4-5,65.0,49.5,37.3,39.7,32.2,21.4,96,59,24,30.13,29.83,15,1,15,0.14
2013-4-6,56.7,45.7,34.5,29.1,22.6,17.4,61,41,25,30.35,30.07,13,1,13,0.00
2013-4-7,68.4,53.7,37.4,42.7,36.7,29.0,86,56,34,30.31,30.00,22,3,22,0.00
2013-4-8,81.0,65.9,48.2,52.8,47.2,42.2,81,53,28,30.09,29.96,13,1,13,0.00
2013-4-9,85.8,73.4,60.4,58.2,53.9,51.2,73,52,33,30.08,29.92,14,0,14,0.00
2013-4-10,92.4,79.1,64.4,60.3,55.4,52.9,69,46,31,29.97,29.77,15,1,15,0.00
2013-4-11,88.0,69.7,54.1,63.3,57.8,51.7,92,69,40,29.91,29.75,18,2,18,0.00
2013-4-12,65.3,55.3,50.4,61.1,53.8,49.4,98,95,85,29.85,29.61,15,2,15,0.71
2013-4-13,68.0,54.4,41.7,51.0,43.1,37.0,98,70,37,29.97,29.78,15,1,15,0.00
2013-4-14,66.8,54.8,40.6,45.9,39.7,33.1,91,61,30,30.16,29.97,14,1,14,0.00
2013-4-15,63.4,55.9,51.5,52.2,48.6,43.1,94,77,64,30.32,30.15,10,1,10,0.03
2013-4-16,75.0,62.2,51.9,60.0,54.5,48.7,90,77,57,30.34,30.12,15,1,15,0.00
2013-4-17,74.2,65.5,57.8,62.7,58.7,55.4,96,79,64,30.25,30.13,13,1,13,0.00
2013-4-18,76.0,62.9,55.7,65.0,58.4,52.8,97,86,65,30.25,30.02,14,0,14,0.18
2013-4-19,77.1,65.4,51.5,67.1,61.2,49.8,97,87,66,30.02,29.61,19,2,19,0.18
2013-4-20,60.2,51.8,45.2,50.3,34.8,28.0,95,55,34,30.36,29.80,17,1,17,0.61
2013-4-21,54.9,45.6,37.6,34.6,27.3,22.4,76,50,31,30.62,30.35,14,2,14,0.00
2013-4-22,55.7,45.5,33.1,39.5,35.9,31.2,95,70,50,30.62,30.44,17,2,17,0.00
2013-4-23,59.9,50.2,44.4,45.2,41.7,38.1,92,73,51,30.45,30.15,10,1,10,0.00
2013-4-24,77.5,60.0,41.3,59.0,50.0,40.0,97,73,42,30.16,29.80,14,0,14,0.01
2013-4-25,63.8,53.6,43.9,53.1,36.3,26.5,80,54,27,30.34,29.99,14,1,14,0.00
2013-4-26,65.3,52.3,39.3,41.4,37.6,31.0,94,61,32,30.48,30.33,10,1,10,0.00
2013-4-27,71.3,54.5,37.5,43.9,38.7,34.0,94,61,28,30.46,30.32,10,1,10,0.00
2013-4-28,68.0,55.2,40.6,45.9,41.2,34.8,95,63,32,30.32,30.17,14,0,14,0.00
2013-4-29,59.0,55.1,51.3,57.9,53.1,42.4,98,93,61,30.19,30.08,10,0,10,0.23
2013-4-30,59.1,55.4,49.4,57.4,54.3,48.5,98,96,89,30.32,30.12,13,1,13,0.14
2013-5-1,68.5,55.8,42.2,48.5,43.1,36.9,98,67,34,30.45,30.31,12,1,12,0.00
2013-5-2,67.8,54.2,40.3,50.5,46.1,39.3,97,77,48,30.47,30.34,10,0,10,0.00
2013-5-3,66.3,53.6,42.5,49.4,44.6,41.4,97,74,48,30.42,30.34,14,1,14,0.00
2013-5-4,66.8,54.7,43.8,48.5,44.8,41.2,93,71,47,30.37,30.20,13,1,13,0.00
2013-5-5,60.9,51.6,43.6,46.8,43.3,39.8,93,74,55,30.28,30.18,13,1,13,0.00
2013-5-6,61.2,54.0,44.7,57.6,51.1,43.0,96,90,84,30.22,30.09,10,2,10,0.00
2013-5-7,62.4,59.1,57.0,61.4,58.3,56.4,98,97,96,30.11,29.97,14,2,14,0.99
2013-5-8,71.3,59.8,55.1,62.3,57.2,54.3,98,92,64,30.03,29.95,9,0,9,0.11
2013-5-9,74.2,62.2,52.8,60.5,56.7,52.2,99,84,58,30.01,29.94,8,0,8,0.00
2013-5-10,84.0,67.8,52.1,64.2,58.3,51.3,98,75,41,30.03,29.88,12,1,12,0.73
2013-5-11,78.4,65.9,62.2,68.7,63.2,59.8,98,92,59,29.94,29.73,15,0,15,0.64
2013-5-12,64.1,57.5,46.1,61.9,43.5,30.5,98,64,30,30.05,29.75,18,1,18,0.01
2013-5-13,60.2,48.7,38.3,38.9,32.9,24.1,93,59,28,30.20,30.05,13,1,13,0.00
2013-5-14,62.4,49.1,33.0,47.3,36.3,29.0,95,65,33,30.24,30.08,13,0,13,0.00
2013-5-15,82.7,65.1,52.4,65.7,56.0,45.1,96,74,51,30.10,29.70,13,0,13,0.00
2013-5-16,80.3,72.6,63.5,65.0,61.1,57.2,87,68,56,29.93,29.76,13,0,13,0.00
2013-5-17,83.3,69.5,55.8,59.5,52.9,43.9,96,60,30,30.17,29.93,8,0,8,0.00
2013-5-18,66.1,62.1,58.4,58.0,56.1,51.1,95,81,65,30.26,30.17,12,0,12,0.01
2013-5-19,70.3,63.5,58.5,66.5,62.0,57.4,98,95,86,30.24,30.12,7,0,7,0.01
2013-5-20,80.2,70.1,63.5,71.4,66.5,62.5,98,89,67,30.14,29.99,6,0,6,0.00
2013-5-21,83.4,73.1,63.7,73.1,68.4,62.8,98,86,67,30.01,29.89,9,0,9,0.00
2013-5-22,87.4,76.1,67.1,75.3,70.0,64.3,98,83,60,29.94,29.84,13,1,13,0.04
2013-5-23,80.5,70.6,64.5,70.1,66.8,62.9,98,89,66,29.92,29.76,12,1,12,0.63
2013-5-24,64.7,56.2,48.3,63.8,50.3,35.4,98,81,58,30.16,29.75,15,1,15,0.10
2013-5-25,64.8,53.8,43.3,42.4,38.1,34.7,76,57,38,30.19,30.09,14,2,14,0.00
2013-5-26,70.8,58.1,47.2,45.3,40.3,36.4,81,54,29,30.24,30.14,10,0,10,0.00
2013-5-27,70.7,58.6,43.0,53.9,46.1,40.7,95,67,37,30.31,30.20,7,0,7,0.00
2013-5-28,78.0,65.1,55.9,68.6,60.9,52.4,97,87,67,30.23,30.09,4,0,5,0.52
2013-5-29,88.3,75.1,64.3,72.9,67.3,63.6,98,79,48,30.14,30.08,9,0,9,0.00
2013-5-30,91.5,78.2,65.6,72.8,67.9,63.9,95,73,44,30.19,30.11,8,0,8,0.00
2013-5-31,90.0,77.6,64.7,71.2,66.3,61.1,97,71,42,30.16,30.03,9,0,9,0.00
2013-6-1,90.2,79.2,67.4,73.2,67.6,64.5,91,69,49,30.05,29.92,12,1,12,0.00
2013-6-2,83.7,75.7,68.0,73.9,68.1,64.9,97,78,63,29.93,29.84,18,1,18,0.68
2013-6-3,80.0,70.9,65.2,71.1,67.2,58.4,98,89,65,29.96,29.83,10,0,10,0.76
2013-6-4,75.1,65.0,56.3,58.3,51.4,44.9,93,64,38,30.15,29.96,11,1,11,0.00
2013-6-5,79.3,65.4,51.4,61.6,55.3,50.4,97,73,44,30.21,30.07,8,0,8,0.00
2013-6-6,72.3,65.2,59.2,64.2,60.6,55.7,97,85,70,30.11,29.89,9,0,9,0.30
2013-6-7,70.1,67.7,64.4,69.8,66.9,63.5,99,98,96,29.89,29.60,13,1,13,2.05
2013-6-8,79.3,69.1,63.4,65.4,63.4,61.2,98,83,56,30.11,29.70,6,0,6,0.01
2013-6-9,81.3,70.2,61.1,70.5,64.7,59.7,98,84,59,30.22,30.11,9,0,9,0.00
2013-6-10,76.6,71.2,68.3,74.7,70.2,66.0,98,96,90,30.12,29.81,12,0,12,2.06
2013-6-11,82.5,72.6,65.0,68.7,66.7,64.4,99,83,59,29.85,29.78,13,0,13,0.01
2013-6-12,86.3,75.3,64.1,73.2,68.2,62.9,97,80,60,29.88,29.79,10,0,10,0.00
2013-6-13,87.0,73.1,67.9,72.6,68.1,58.4,96,85,59,29.83,29.47,17,1,17,1.01
2013-6-14,77.5,67.2,58.6,59.9,56.8,51.3,94,71,47,29.99,29.59,18,2,18,0.02
2013-6-15,81.5,69.2,58.2,62.1,58.9,54.4,95,73,43,30.09,29.98,8,0,8,0.00
2013-6-16,83.2,71.3,60.6,69.2,64.3,58.9,96,80,60,30.05,29.89,8,0,8,0.00
2013-6-17,86.5,76.2,67.0,72.6,67.7,63.5,93,76,56,29.97,29.88,8,0,8,0.00
2013-6-18,74.2,69.9,63.7,72.9,68.7,62.9,98,96,90,29.93,29.80,7,0,7,0.24
2013-6-19,77.0,67.3,60.3,66.1,62.6,58.9,98,86,62,30.17,29.90,10,0,10,0.04
2013-6-20,75.2,62.1,57.0,65.4,59.9,56.2,98,93,64,30.29,30.17,7,0,7,0.00
2013-6-21,82.0,68.2,55.3,63.0,56.1,47.2,96,69,35,30.33,30.25,2,0,7,0.00
2013-6-22,86.8,72.5,58.6,69.9,64.4,57.8,98,78,50,30.27,30.15,6,0,11,0.00
2013-6-23,82.9,72.4,64.3,74.7,69.5,63.0,97,91,73,30.21,30.08,6,0,6,0.17
2013-6-24,91.8,76.0,67.9,75.8,70.3,66.1,98,84,48,30.14,30.02,14,0,14,0.03
2013-6-25,91.2,78.1,66.0,75.6,70.0,65.1,98,79,55,30.05,29.90,14,0,14,0.19
2013-6-26,89.8,74.8,66.1,77.1,70.0,65.4,98,87,54,29.93,29.82,11,0,11,0.06
2013-6-27,83.5,74.5,68.0,76.4,71.3,67.4,98,90,76,29.85,29.61,16,0,16,0.21
2013-6-28,87.2,74.6,68.7,75.0,70.4,67.8,98,88,60,29.64,29.49,17,0,17,0.03
2013-6-29,87.2,75.4,65.5,72.0,67.4,62.5,98,79,46,29.71,29.54,9,0,9,0.01
2013-6-30,85.3,75.0,69.6,77.2,72.9,68.2,98,93,69,29.86,29.71,13,0,13,0.64
2013-7-1,80.9,75.1,70.5,77.2,73.0,69.6,98,94,80,30.00,29.86,7,0,7,0.21
2013-7-2,81.5,75.2,72.6,75.5,72.9,71.3,97,93,78,30.19,30.00,0,0,0,0.04
2013-7-3,84.2,75.5,71.0,77.9,73.3,70.0,98,93,77,30.25,30.18,0,0,0,1.02
2013-7-4,88.1,78.8,72.0,77.6,73.4,71.1,98,85,63,30.27,30.18,0,0,0,0.00
2013-7-5,88.7,79.3,71.3,77.1,73.5,70.5,98,83,62,30.24,30.13,0,0,0,0.00
2013-7-6,93.1,80.9,72.0,77.7,73.6,71.1,98,80,54,30.20,30.07,0,0,0,0.00
2013-7-7,91.2,78.4,69.6,76.9,72.4,68.7,97,83,58,30.12,30.00,0,0,0,0.21
2013-7-8,84.5,75.2,68.9,74.4,70.4,67.2,98,86,60,30.12,30.05,0,0,0,0.02
2013-7-9,81.2,75.1,69.8,76.5,72.5,68.6,98,92,79,30.12,30.01,0,0,0,0.00
2013-7-10,87.3,77.5,72.4,77.3,74.4,71.2,98,91,69,30.03,29.87,0,0,0,0.21
2013-7-11,84.5,75.3,72.0,74.8,71.2,-99.9,98,89,65,29.94,29.85,0,-4,0,0.08
2013-7-12,73.4,69.2,65.6,72.0,68.1,64.7,98,96,94,30.04,29.91,0,0,0,0.59
2013-7-13,83.8,74.1,67.7,76.8,71.5,67.1,99,92,76,30.30,30.03,0,0,0,0.22
2013-7-14,89.5,78.6,71.7,78.6,74.8,70.7,99,89,63,30.36,30.28,0,0,0,0.00
2013-7-15,93.5,80.1,69.7,78.6,74.2,69.1,99,84,54,30.32,30.19,0,0,0,0.00
2013-7-16,92.5,82.6,74.0,76.8,73.2,69.6,95,76,51,30.25,30.17,0,0,0,0.00
2013-7-17,93.5,81.1,71.7,77.4,73.3,69.6,98,80,50,30.22,30.10,0,0,0,0.00
2013-7-18,96.3,83.1,73.0,81.7,76.4,72.1,98,82,51,30.13,30.00,0,0,0,0.00
2013-7-19,96.2,81.9,73.3,81.2,76.6,72.4,98,86,56,30.02,29.87,0,0,0,0.31
2013-7-20,92.0,79.9,71.9,77.9,74.1,69.9,98,84,57,29.90,29.80,0,0,0,0.01
2013-7-21,88.8,77.0,69.8,77.3,72.1,68.6,97,86,60,29.95,29.89,0,0,0,0.01
2013-7-22,86.3,77.6,70.8,78.1,74.0,69.9,98,89,69,29.94,29.76,0,0,0,0.23
2013-7-23,85.7,76.4,70.6,74.8,71.5,68.8,98,86,62,29.78,29.65,0,0,0,0.08
2013-7-24,83.2,74.3,68.3,70.9,67.3,59.1,95,80,62,29.93,29.69,0,0,0,0.00
2013-7-25,78.8,68.4,60.3,63.9,59.0,53.4,95,73,57,30.05,29.93,0,0,0,0.00
2013-7-26,82.5,70.1,60.5,65.9,62.8,59.6,98,80,50,30.11,30.03,0,0,0,0.00
2013-7-27,83.8,71.4,63.2,72.8,67.6,62.3,98,89,66,30.08,29.93,0,0,0,0.38
2013-7-28,83.5,73.3,67.7,73.8,70.1,66.8,99,90,63,30.02,29.90,0,0,0,0.04
2013-7-29,80.7,69.4,61.3,66.8,60.9,54.2,97,77,45,30.18,29.99,0,0,0,0.06
2013-7-30,80.7,68.2,57.3,66.7,61.1,56.5,98,80,51,30.25,30.16,0,0,0,0.00
2013-7-31,78.0,70.3,62.4,70.7,66.3,61.5,98,88,66,30.17,30.03,0,0,0,0.00
2013-8-1,83.7,72.2,67.0,73.4,70.0,66.1,98,93,70,30.03,29.82,0,0,0,0.27
2013-8-2,85.3,73.5,65.6,71.7,67.3,64.7,98,83,53,29.98,29.86,0,0,0,0.00
2013-8-3,75.7,67.9,64.7,70.1,66.0,63.7,98,94,76,29.99,29.93,0,0,0,0.06
2013-8-4,80.2,69.1,60.5,64.4,60.5,54.1,97,77,45,30.04,29.92,0,0,0,0.00
2013-8-5,79.8,66.7,55.5,63.8,58.6,54.3,97,78,45,30.13,30.03,0,0,0,0.00
2013-8-6,71.9,66.7,62.7,69.0,65.3,61.0,98,95,88,30.10,30.03,0,0,0,0.18
2013-8-7,81.5,72.5,66.6,75.1,70.2,65.7,98,93,78,30.10,30.01,0,0,0,0.03
2013-8-8,84.5,75.3,70.4,76.8,72.9,69.4,99,93,73,30.07,29.99,0,0,0,0.33
2013-8-9,86.3,78.7,73.8,78.1,74.5,72.0,98,88,71,29.99,29.85,0,0,0,0.00
2013-8-10,82.7,74.6,67.8,72.7,69.2,60.4,97,84,50,30.09,29.95,0,0,0,0.00
2013-8-11,84.1,73.6,67.0,73.9,69.0,66.1,98,87,64,30.13,30.02,0,0,0,0.00
2013-8-12,86.3,75.2,66.8,74.7,70.3,65.9,98,86,58,30.05,29.93,0,0,0,0.00
2013-8-13,84.0,75.3,69.4,74.1,71.4,67.1,98,88,63,29.92,29.75,0,0,0,0.18
2013-8-14,74.2,66.0,55.9,66.8,54.8,49.1,92,68,51,30.11,29.82,0,0,0,0.01
2013-8-15,77.7,63.6,51.5,58.4,53.4,47.8,97,74,36,30.21,30.11,0,0,0,0.00
2013-8-16,79.2,64.0,52.5,62.7,57.4,51.6,98,81,45,30.22,30.16,0,0,0,0.00
2013-8-17,79.5,66.3,54.1,63.3,58.7,53.3,98,79,50,30.29,30.22,0,0,0,0.00
2013-8-18,72.1,66.9,63.7,64.4,62.8,58.0,97,87,65,30.25,30.18,0,0,0,0.02
2013-8-19,74.7,67.3,60.3,68.9,64.3,59.4,98,91,77,30.20,30.08,0,0,0,0.00
2013-8-20,87.3,72.1,60.5,71.2,66.0,59.9,99,84,52,30.18,30.11,0,0,0,0.00
2013-8-21,88.6,75.0,65.3,75.3,70.6,64.7,98,88,55,30.21,30.08,0,0,0,0.01
2013-8-22,87.2,76.3,69.2,72.9,70.5,68.3,98,84,57,30.10,29.94,0,0,0,0.00
2013-8-23,74.8,68.9,60.7,70.6,66.0,59.8,97,91,78,30.13,29.95,0,0,0,0.03
2013-8-24,81.8,67.1,56.9,65.0,60.5,56.3,98,82,49,30.36,30.14,0,0,0,0.00
2013-8-25,82.2,66.5,54.9,65.5,58.4,54.1,98,78,45,30.44,30.29,0,0,0,0.00
2013-8-26,86.7,71.2,58.3,67.6,62.4,56.8,96,77,46,30.31,30.01,0,0,0,0.00
2013-8-27,88.3,76.9,68.6,74.9,70.4,66.0,94,82,60,30.01,29.88,0,0,0,0.00
2013-8-28,78.0,73.4,70.0,74.1,71.3,69.1,97,93,81,29.92,29.84,0,0,0,0.04
2013-8-29,84.0,74.5,69.8,72.9,70.6,68.9,98,88,65,30.04,29.85,0,0,0,0.04
2013-8-30,87.2,76.1,68.3,72.9,69.5,67.0,97,82,57,30.05,29.90,0,0,0,0.00
2013-8-31,89.7,78.0,69.0,75.8,71.6,67.8,97,82,56,29.92,29.80,0,0,0,0.00
2013-9-1,91.7,78.4,67.7,76.3,72.7,66.8,98,84,54,29.86,29.76,0,0,0,0.00
2013-9-2,89.5,77.9,69.4,74.4,71.7,68.2,97,83,56,29.81,29.72,0,0,0,0.00
2013-9-3,83.8,75.2,65.9,72.8,64.9,56.4,96,73,47,29.97,29.74,0,0,0,0.00
2013-9-4,82.7,67.4,55.8,60.4,56.3,50.3,95,72,34,30.10,29.97,0,0,0,0.00
2013-9-5,82.8,69.4,59.0,65.6,59.8,50.4,96,74,47,30.15,30.02,0,0,0,0.00
2013-9-6,76.0,62.6,51.6,55.6,50.6,43.1,94,68,33,30.28,30.15,0,0,0,0.00
2013-9-7,81.8,64.4,49.9,64.4,57.0,48.8,97,80,46,30.18,29.96,0,0,0,0.00
2013-9-8,85.8,72.4,61.7,68.8,64.6,55.4,97,78,53,30.08,29.89,0,0,0,0.00
2013-9-9,78.7,68.4,58.4,67.5,58.1,48.1,93,70,54,30.22,30.08,0,0,0,0.08
2013-9-10,91.8,78.3,69.3,75.5,71.6,67.4,95,82,55,30.19,30.09,0,0,0,0.00
2013-9-11,92.8,79.8,70.3,78.3,72.8,69.3,98,81,50,30.16,30.01,0,0,0,0.00
2013-9-12,87.2,73.6,68.0,76.8,70.8,67.1,98,92,65,30.01,29.75,0,0,0,0.16
2013-9-13,77.7,68.0,59.6,68.2,58.7,-99.9,98,76,41,29.94,29.71,0,-4,0,0.01
2013-9-14,68.8,58.4,50.4,51.8,48.9,46.3,94,72,46,30.19,29.94,0,0,0,0.00
2013-9-15,76.2,59.6,44.7,58.0,51.4,43.7,97,78,44,30.27,30.11,0,0,0,0.00
2013-9-16,73.0,62.3,55.4,61.2,57.5,53.9,96,85,58,30.26,30.06,0,0,0,0.04
2013-9-17,68.3,56.5,46.8,54.8,45.7,38.0,96,70,35,30.46,30.26,0,0,0,0.00
2013-9-18,71.8,54.9,41.3,52.5,46.8,40.2,97,78,39,30.38,30.22,0,0,0,0.00
2013-9-19,77.5,60.1,45.0,61.0,53.9,44.0,98,82,53,30.24,30.11,0,0,0,0.00
2013-9-20,80.3,64.1,51.0,63.9,58.1,50.1,98,83,54,30.12,29.99,0,0,0,0.00
2013-9-21,76.2,65.0,57.9,65.8,61.5,56.8,98,89,60,30.01,29.70,0,0,0,0.99
2013-9-22,70.9,62.1,52.2,61.8,55.5,50.2,99,81,51,29.97,29.74,0,0,0,0.00
2013-9-23,66.8,55.4,47.5,51.4,47.5,43.3,97,77,48,30.12,29.97,0,0,0,0.00
2013-9-24,72.7,55.1,41.9,55.0,47.6,41.1,98,79,42,30.15,29.97,0,0,0,0.00
2013-9-25,75.6,57.4,44.4,55.9,48.3,41.7,98,77,32,30.01,29.91,1,0,1,0.08
2013-9-26,75.8,60.5,51.4,57.1,53.2,50.6,97,80,46,30.10,29.96,0,0,0,0.00
2013-9-27,71.7,60.1,52.1,60.5,56.3,50.9,97,88,61,30.28,30.10,0,0,0,0.00
2013-9-28,71.1,59.8,52.4,57.7,54.5,51.6,98,84,55,30.34,30.25,0,0,0,0.00
2013-9-29,73.0,58.1,48.2,59.6,53.3,47.4,98,86,58,30.25,30.09,0,0,0,0.00
2013-9-30,73.3,58.3,47.2,60.0,53.1,46.4,98,85,53,30.13,30.01,0,0,0,0.00
2013-10-1,82.2,64.4,51.6,64.8,58.2,50.8,97,83,47,30.10,29.99,0,0,0,0.00
2013-10-2,84.0,67.8,55.7,65.4,60.7,54.8,98,81,48,30.10,30.01,8,0,8,0.00
2013-10-3,81.5,68.2,57.9,68.5,63.4,57.1,98,86,59,30.14,30.06,4,0,4,0.00
2013-10-4,85.5,69.9,58.5,70.0,64.5,57.9,98,85,54,30.11,30.02,5,0,5,0.00
2013-10-5,87.3,72.8,62.8,70.5,66.2,61.8,98,82,50,30.10,30.01,6,0,6,0.00
2013-10-6,87.0,73.2,63.6,72.1,66.7,62.6,98,82,49,30.05,29.93,16,0,16,0.00
2013-10-7,73.8,64.8,55.3,70.8,62.4,47.6,98,92,74,30.07,29.80,17,0,17,1.12
2013-10-8,66.7,55.0,46.1,52.0,48.4,45.2,98,81,50,30.31,30.07,12,1,12,0.00
2013-10-9,59.7,54.9,50.2,52.1,50.2,47.0,96,85,72,30.36,30.24,13,2,13,0.11
2013-10-10,57.5,55.2,52.5,56.9,54.2,51.1,98,97,94,30.24,30.02,11,1,11,1.53
2013-10-11,61.9,59.6,56.9,61.3,59.0,56.3,98,98,98,30.03,29.96,0,0,0,1.30
2013-10-12,66.3,62.4,59.8,61.2,59.6,57.1,99,91,77,30.19,30.01,0,0,0,0.51
2013-10-13,63.9,59.2,54.7,58.7,56.6,52.9,97,92,78,30.36,30.19,0,0,0,0.12
2013-10-14,68.5,58.6,52.0,57.0,54.0,51.1,97,86,60,30.37,30.25,5,0,5,0.00
2013-10-15,70.8,58.7,49.4,55.2,49.9,41.1,98,77,36,30.27,30.12,4,0,7,0.00
2013-10-16,69.0,62.0,55.8,63.6,59.3,53.9,97,91,80,30.12,29.94,5,0,5,0.00
2013-10-17,76.7,65.1,58.1,65.9,61.8,57.5,99,90,67,29.94,29.74,10,0,13,0.09
2013-10-18,65.8,55.4,45.5,57.6,47.5,43.9,96,77,49,30.05,29.83,11,0,11,0.00
2013-10-19,66.0,53.2,42.7,57.8,49.2,41.5,98,87,57,30.04,29.81,10,0,10,0.03
2013-10-20,62.6,51.4,41.5,49.1,41.0,37.4,95,69,43,30.14,29.88,9,0,9,0.00
2013-10-21,67.3,50.3,36.5,50.6,42.0,35.4,98,77,38,30.19,30.01,12,0,12,0.00
2013-10-22,61.4,51.3,42.0,52.7,46.8,41.2,98,85,65,30.00,29.85,5,0,5,0.00
2013-10-23,57.4,48.4,43.4,43.9,39.5,35.2,87,72,48,29.92,29.68,14,0,14,0.00
2013-10-24,51.6,43.4,37.7,38.0,33.0,26.9,87,68,43,30.16,29.92,13,1,13,0.00
2013-10-25,55.4,43.2,35.2,37.3,33.1,31.2,86,69,45,30.35,30.16,14,0,14,0.00
2013-10-26,55.4,44.0,30.3,37.1,32.2,28.5,94,66,42,30.34,29.98,17,1,17,0.00
2013-10-27,59.9,47.1,35.7,39.8,36.5,33.7,93,69,43,30.19,29.99,8,0,8,0.00
2013-10-28,64.5,45.5,32.1,45.1,38.2,31.1,97,79,43,30.32,30.19,5,0,5,0.00
2013-10-29,63.0,47.4,35.7,46.3,41.2,34.7,97,81,51,30.42,30.32,7,0,7,0.00
2013-10-30,67.0,53.4,43.7,58.1,50.7,42.0,98,91,72,30.37,30.17,9,0,9,0.04
2013-10-31,67.9,60.1,52.7,61.4,57.2,51.9,98,91,77,30.23,29.80,12,1,12,0.03
2013-11-1,72.3,65.2,53.9,64.5,59.8,53.1,97,84,62,29.80,29.61,21,1,21,0.13
2013-11-2,68.5,56.0,47.7,55.1,47.5,40.1,98,76,46,29.90,29.66,14,0,14,0.01
2013-11-3,56.0,47.2,37.5,43.2,34.3,23.7,89,63,32,30.50,29.90,18,2,18,0.00
2013-11-4,46.4,37.1,28.8,29.6,24.9,19.8,87,63,37,30.68,30.50,11,1,11,0.00
2013-11-5,56.9,46.7,33.0,47.8,40.3,29.3,87,79,63,30.65,30.49,5,0,5,0.00
2013-11-6,68.5,55.9,43.5,54.6,50.0,42.4,97,82,59,30.49,30.09,13,1,13,0.00
2013-11-7,60.6,53.0,42.6,56.6,47.1,25.9,96,81,51,30.10,29.90,17,1,17,0.04
2013-11-8,51.4,40.6,31.7,33.3,28.1,25.0,88,63,40,30.35,30.10,14,1,14,0.00
2013-11-9,53.7,41.6,27.1,33.0,28.9,24.8,94,64,40,30.39,30.07,15,1,15,0.01
2013-11-10,62.9,47.9,35.8,38.1,31.8,28.8,84,56,31,30.25,29.98,19,1,19,0.00
2013-11-11,56.7,47.2,34.2,35.5,31.6,29.0,85,56,40,30.34,30.03,13,1,13,0.00
2013-11-12,50.4,39.5,27.5,39.2,25.4,14.9,78,57,40,30.43,30.01,20,2,20,0.00
2013-11-13,43.4,33.5,27.4,23.4,21.1,17.6,75,61,42,30.51,30.42,15,1,15,0.00
2013-11-14,58.4,38.7,24.4,26.7,21.1,10.8,90,57,16,30.43,30.26,10,0,10,0.00
2013-11-15,59.7,42.1,26.7,42.7,28.8,23.9,90,64,27,30.32,30.22,5,0,5,0.01
2013-11-16,52.2,48.1,42.9,49.3,46.6,42.1,98,95,89,30.37,30.27,4,0,4,0.00
2013-11-17,63.7,56.3,49.7,59.1,54.4,49.2,99,94,82,30.27,29.77,13,0,13,0.04
2013-11-18,68.5,58.5,48.5,60.8,40.2,26.3,97,56,24,29.96,29.71,18,2,18,0.15
2013-11-19,48.9,42.8,33.1,30.3,28.1,26.3,80,56,45,30.41,29.96,18,2,18,0.00
2013-11-20,44.2,34.5,28.0,27.5,25.6,23.3,89,71,47,30.62,30.40,10,1,10,0.00
2013-11-21,49.0,40.2,26.0,39.9,33.8,23.6,92,78,66,30.63,30.43,5,0,5,0.00
2013-11-22,60.6,51.9,43.4,53.0,47.0,39.2,93,83,72,30.43,30.03,9,0,9,0.01
2013-11-23,55.7,42.9,30.6,50.6,28.7,14.2,83,58,42,30.23,30.06,9,2,13,0.00
2013-11-24,31.9,26.6,22.9,14.6,10.6,7.8,64,51,37,30.56,30.23,16,2,19,0.00
2013-11-25,36.3,28.3,19.3,16.9,11.9,8.0,75,51,32,30.62,30.39,8,1,10,0.00
2013-11-26,45.7,35.4,32.3,45.2,30.0,15.7,98,82,48,30.39,29.60,10,1,10,1.49
2013-11-27,45.3,36.9,28.9,44.8,33.4,17.9,98,88,61,30.05,29.54,20,2,20,0.59
2013-11-28,37.4,30.2,26.1,25.7,18.7,15.5,85,63,42,30.52,30.06,13,1,13,0.00
2013-11-29,41.7,31.2,22.2,26.1,22.5,20.4,93,72,47,30.77,30.51,14,1,14,0.00
2013-11-30,36.4,29.1,20.4,27.0,22.0,18.2,92,76,54,30.77,30.42,6,0,6,0.00
2013-12-1,46.7,35.5,23.3,34.4,28.6,21.8,94,77,54,30.43,30.06,6,0,6,0.00
2013-12-2,49.7,41.9,37.1,38.5,35.8,33.3,90,79,59,30.06,29.91,3,0,3,0.00
2013-12-3,56.4,44.0,35.5,40.8,37.2,33.7,93,78,53,30.03,29.92,6,0,7,0.00
2013-12-4,53.4,44.9,34.4,47.6,41.6,32.9,95,88,77,30.13,30.03,3,0,3,0.00
2013-12-5,67.5,57.7,49.0,61.6,54.7,46.7,96,90,76,30.11,29.95,13,1,13,0.00
2013-12-6,63.6,50.4,37.7,62.3,49.1,36.6,97,95,93,30.22,29.90,13,2,13,0.98
2013-12-7,41.7,36.3,29.9,36.6,31.1,23.0,96,82,65,30.58,30.16,14,1,14,0.22
2013-12-8,31.4,28.5,26.9,30.4,24.1,19.9,96,84,68,30.64,30.33,9,1,9,0.04
2013-12-9,34.9,33.0,31.4,34.0,32.1,30.4,97,96,95,30.35,30.07,4,0,4,0.68
2013-12-10,35.4,32.3,29.8,34.3,29.8,20.6,98,91,68,30.26,30.02,11,0,11,0.16
2013-12-11,37.9,29.4,22.6,24.0,21.0,18.4,94,72,48,30.45,30.26,10,0,10,0.09
2013-12-12,30.5,25.5,20.0,23.9,16.2,11.4,94,69,47,30.48,30.30,11,1,11,0.05
2013-12-13,40.9,30.4,20.4,26.4,19.3,14.8,87,65,40,30.36,30.26,10,0,10,0.09
2013-12-14,37.0,33.5,29.5,35.1,30.1,26.0,97,88,71,30.38,29.74,12,1,12,0.49
2013-12-15,44.9,35.5,29.4,38.6,30.5,23.4,98,83,63,29.98,29.66,15,1,15,0.08
2013-12-16,35.6,32.8,30.1,27.1,24.5,19.9,82,71,62,30.24,29.98,10,1,10,0.01
2013-12-17,36.6,33.3,30.8,31.4,28.7,26.5,87,83,79,30.22,29.98,5,0,5,0.00
2013-12-18,38.5,31.8,24.9,28.6,24.3,20.9,92,75,52,30.26,30.02,15,1,15,0.00
2013-12-19,56.9,38.4,23.1,33.9,27.7,21.1,94,69,37,30.26,30.11,10,0,10,0.00
2013-12-20,56.6,50.3,38.2,47.9,35.7,30.3,77,58,44,30.15,30.02,12,1,12,0.00
2013-12-21,69.6,60.7,52.5,60.2,52.2,44.1,85,74,62,30.05,29.92,20,3,20,0.00
2013-12-22,69.2,63.9,60.5,63.9,60.7,57.9,97,90,83,30.03,29.84,23,3,23,0.29
2013-12-23,61.9,53.8,37.5,61.0,50.6,29.3,97,89,69,30.26,29.93,14,1,14,0.92
2013-12-24,40.4,32.6,23.0,29.3,21.9,9.4,83,65,45,30.51,30.23,15,1,15,0.00
2013-12-25,32.2,24.3,18.2,19.5,14.1,10.9,85,66,46,30.62,30.44,8,0,8,0.00
2013-12-26,43.5,30.0,20.4,26.6,22.6,18.2,92,76,48,30.44,30.26,5,0,8,0.00
2013-12-27,49.1,34.2,22.7,26.7,22.5,17.8,92,66,29,30.47,30.35,11,0,11,0.00
2013-12-28,57.7,39.8,25.4,35.1,27.8,23.3,92,66,32,30.38,30.15,14,0,14,0.00
2013-12-29,46.7,42.5,37.2,46.2,39.7,30.8,98,90,61,30.15,29.56,11,1,11,1.11
2013-12-30,45.2,38.1,31.5,39.2,31.6,20.7,98,78,64,30.23,29.85,16,1,16,0.00
2013-12-31,43.8,33.1,25.4,30.6,22.2,18.6,86,65,47,30.38,30.14,8,1,16,0.00
2014-1-1,45.1,32.5,23.9,30.5,25.4,20.8,92,77,50,30.46,30.18,11,1,11,0.00
2014-1-2,36.0,31.8,27.7,32.8,30.0,26.4,96,93,87,30.18,29.67,10,1,10,0.00